Location: Lane
(33.5226°N, 79.8788°W)
Time: 20:10:38
(UTC+00:00)

Explorer 11/Cluster Stage 4 - Pass Details

Date: 02 October 2022
Orbit: 466 x 1247 km, 28.8° (Epoch: 01 December)

Event Time Altitude Azimuth Distance (km) Brightness Sun altitude
Rises 21:07:56 0° 271° (W) 3,771 11.2 22.4°
Reaches altitude 10° 21:11:05 10° 263° (W) 2,685 11.1 21.8°
Maximum altitude 21:16:52 36° 200° (SSW) 1,276 8.4 20.7°
Drops below altitude 10° 21:21:35 10° 134° (SE) 2,174 8.7 19.8°
Sets 21:23:54 0° 125° (SE) 2,973 9.2 19.3°
